Simultaneous Nadir Overpasses (SNOs) Predictions

Prediction of SNOs between AQUA and METOP-A Satellite Orbit:

Table of predicted SNOs for the next 14.0 days since TLE Epoch: 10/20/2018
Index Date (AQUA) Time (AQUA) Lat,Lon (AQUA) SZA (AQUA ) Date (METOP-A) Time (METOP-A) Lat,Lon (METOP-A) SZA (METOP-A ) Distance(km) Time Diff (sec)
1 10/20/2018 05:31:43 -74.70, -90.68 95.03 10/20/2018 05:32:42 -74.69, -90.62 95.05 2.63 59
2 10/22/2018 23:26:56 -74.27, 1.54 94.51 10/22/2018 23:25:46 -74.23, -0.06 94.51 48.72 70
3 10/23/2018 00:16:30 74.62, 168.33 85.88 10/23/2018 00:16:18 74.62, 168.28 85.88 1.25 12
4 10/23/2018 01:05:57 -74.67, -24.16 94.06 10/23/2018 01:06:58 -74.69, -24.22 94.05 2.31 61
5 10/25/2018 19:01:11 -74.34, 67.80 93.45 10/25/2018 19:00:00 -74.27, 66.46 93.49 41.03 71
6 10/25/2018 19:50:44 74.66,-125.32 86.89 10/25/2018 19:50:32 74.67,-125.19 86.90 3.85 12
7 10/25/2018 20:40:11 -74.70, 42.22 93.06 10/25/2018 20:41:13 -74.68, 42.19 93.08 1.71 62
8 10/28/2018 14:35:26 -74.38, 134.16 92.47 10/28/2018 14:34:15 -74.32, 132.98 92.50 35.94 71
9 10/28/2018 15:24:58 74.64, -58.85 87.83 10/28/2018 15:24:48 74.66, -58.80 87.84 2.12 10
10 10/28/2018 16:14:25 -74.68, 108.70 92.13 10/28/2018 16:15:29 -74.68, 108.58 92.13 3.47 64
11 10/31/2018 10:09:41 -74.42,-159.50 91.50 10/31/2018 10:08:30 -74.36,-160.50 91.53 30.64 71
12 10/31/2018 10:59:12 74.64, 7.60 88.75 10/31/2018 10:59:04 74.65, 7.58 88.76 1.20 8




NCC Satellite Simultaneous Nadir Overpasses (SNOs) Prediction Service
